Weather in Tirlyanskiy

Russia / Republic of Bashkortostan     54°12′39″N   58°35′11″E
temp.,
°C
wind,
m/s
gust,
m/s
humid.,
%
clouds,
%
prec.,
mm/h
press.,
hPa
HPBL,
m
23 september, thu
thu2323:00+3ene1170100 0.0 102612
02:00+1ne1182100 0.0 102810
05:00−1ese11925 0.0 102910
08:000se11865 0.0 102934
11:00+8ese21525 0.0 1027547
14:00+11se22429 0.0 10261130
17:00+11se224512 0.0 10251051
20:00+3sse11755 0.0 102810
24 september, fri
fri2423:00+2sse118296 0.0 102910
02:00+1se1186100 0.0 103010
05:00+1s118899 0.0 103010
08:00+2s1178100 0.0 102930
11:00+9sse2447100 0.0 1027619
14:00+11sse3438100 0.0 1025904
17:00+11sse354099 0.0 1024883
20:00+5sse1155100 0.0 102613
25 september, sat
sat2523:00+4se115826 0.0 102512
02:00+2ese116899 0.0 102510
05:00+3e1262100 0.0 102268
08:00+3e1266100 0.0 102354
11:00+8ese374088 0.0 1021658
14:00+11se5831100 0.0 1018898
17:00+11se4834100 0.0 1017963
20:00+6ese21057100 0.4 1019492
26 september, sun
sun2623:00+4ene2686100 1.7 1018238
02:00+3e2884100 0.0 1018265
05:00+2ene2282100 0.0 101822
08:00+3e31273100 0.0 1018502
11:00+3ese41079100 0.1 1019735
14:00+4e4980100 0.8 1018873
17:00+4ese51182100 1.3 10181066
20:00+1e61397100 2.3 1019777
27 september, mon
mon2723:000e41290100 3.8 1020922
02:00−1e51193100 0.1 1020815
05:00−1e51185100 0.2 1021805
08:00−2ene51284100 0.1 1022784
11:00−1ene6137598 0.1 1023880
14:00+2ene71254100 0.0 10231186
17:00+3ene6125276 0.0 10231377
20:000ene6136197 0.0 10251313